When you browse on this site, cookies collect data to enhance your experience and personalize the content and advertising you see.
Visit our Privacy Policy to learn more. By continuing to use the site, you agree to this use of cookies and data.
  • En España
  • Lista de países
  • Para 7 días
  • Temperatura del agua
  • El tiempo en el mapa
  • Informadores
  • user-avatar
    Iniciar sesión

    Tiempo cada hora Bulawayo

    Hoy, 29 Febrero, Sábado

    Tiempo Temperatura Precipitaciones Viento Presión Humedad
    00:00 +19°C° 0 mm 6 mps 650 mmHg 65%
    01:00 +18°C° 0 mm 7 mps 650 mmHg 75%
    02:00 +17°C° 0 mm 8 mps 650 mmHg 89%
    03:00 +17°C° 0 mm 8 mps 650 mmHg 85%
    04:00 +17°C° 0 mm 8 mps 650 mmHg 82%
    05:00 +17°C° 0 mm 7 mps 650 mmHg 78%
    06:00 +17°C° 0 mm 7 mps 650 mmHg 79%
    07:00 +17°C° 0 mm 7 mps 651 mmHg 80%
    08:00 +17°C° 0 mm 7 mps 651 mmHg 81%
    09:00 +18°C° 0 mm 7 mps 652 mmHg 75%
    10:00 +20°C° 0 mm 7 mps 652 mmHg 69%
    11:00 +21°C° 0 mm 7 mps 652 mmHg 63%
    12:00 +22°C° 0 mm 7 mps 652 mmHg 60%
    13:00 +23°C° 0 mm 7 mps 652 mmHg 57%
    14:00 +24°C° 0 mm 6 mps 652 mmHg 53%
    15:00 +23°C° 0 mm 6 mps 651 mmHg 57%
    16:00 +22°C° 0 mm 6 mps 650 mmHg 61%
    17:00 +21°C° 0 mm 6 mps 650 mmHg 64%
    18:00 +20°C° 0 mm 6 mps 650 mmHg 70%
    19:00 +17°C° 0 mm 6 mps 650 mmHg 75%
    20:00 +16°C° 0 mm 5 mps 651 mmHg 81%
    21:00 +16°C° 0 mm 5 mps 651 mmHg 81%
    22:00 +16°C° 0 mm 5 mps 651 mmHg 82%
    23:00 +15°C° 0 mm 5 mps 651 mmHg 82%

    Mañana, 1 Marzo, Domingo

    Tiempo Temperatura Precipitaciones Viento Presión Humedad
    00:00 +15°C° 0 mm 6 mps 651 mmHg 82%
    01:00 +15°C° 0 mm 6 mps 651 mmHg 82%
    02:00 +15°C° 0 mm 6 mps 650 mmHg 83%
    03:00 +15°C° 0 mm 6 mps 650 mmHg 83%
    04:00 +14°C° 0 mm 6 mps 650 mmHg 83%
    05:00 +14°C° 0 mm 6 mps 650 mmHg 83%
    06:00 +14°C° 0 mm 6 mps 650 mmHg 81%
    07:00 +15°C° 0 mm 6 mps 651 mmHg 79%
    08:00 +15°C° 0 mm 6 mps 651 mmHg 77%
    09:00 +17°C° 0 mm 5 mps 651 mmHg 72%
    10:00 +19°C° 0 mm 5 mps 652 mmHg 68%
    11:00 +20°C° 0 mm 5 mps 652 mmHg 63%
    12:00 +22°C° 0 mm 5 mps 651 mmHg 58%
    13:00 +23°C° 0 mm 5 mps 651 mmHg 53%
    14:00 +26°C° 0 mm 4 mps 651 mmHg 48%
    15:00 +25°C° 0 mm 4 mps 650 mmHg 50%
    16:00 +25°C° 0 mm 4 mps 650 mmHg 51%
    17:00 +23°C° 0 mm 4 mps 649 mmHg 53%
    18:00 +22°C° 0 mm 4 mps 649 mmHg 58%
    19:00 +20°C° 0 mm 4 mps 649 mmHg 64%
    20:00 +18°C° 0 mm 3 mps 649 mmHg 70%
    21:00 +18°C° 0 mm 4 mps 649 mmHg 72%
    22:00 +17°C° 0 mm 4 mps 649 mmHg 75%
    23:00 +17°C° 0 mm 4 mps 650 mmHg 77%

    Pasado mañana, 2 Marzo, Lunes

    Tiempo Temperatura Precipitaciones Viento Presión Humedad
    00:00 +17°C° 0 mm 3 mps 649 mmHg 76%
    01:00 +16°C° 0 mm 3 mps 649 mmHg 75%
    02:00 +16°C° 0 mm 3 mps 649 mmHg 74%
    03:00 +16°C° 0 mm 3 mps 649 mmHg 76%
    04:00 +15°C° 0 mm 2 mps 649 mmHg 79%
    05:00 +15°C° 0 mm 2 mps 648 mmHg 81%
    06:00 +16°C° 0 mm 2 mps 649 mmHg 75%
    07:00 +17°C° 0 mm 3 mps 650 mmHg 69%
    08:00 +18°C° 0 mm 3 mps 650 mmHg 63%
    09:00 +21°C° 0 mm 3 mps 651 mmHg 54%
    10:00 +24°C° 0 mm 3 mps 651 mmHg 44%
    11:00 +27°C° 0 mm 3 mps 652 mmHg 34%
    12:00 +27°C° 0 mm 3 mps 651 mmHg 32%
    13:00 +28°C° 0 mm 3 mps 651 mmHg 30%
    14:00 +29°C° 0 mm 3 mps 650 mmHg 28%
    15:00 +29°C° 0 mm 3 mps 650 mmHg 29%
    16:00 +28°C° 0 mm 3 mps 649 mmHg 30%
    17:00 +28°C° 0 mm 2 mps 649 mmHg 31%
    18:00 +26°C° 0 mm 3 mps 649 mmHg 37%
    19:00 +24°C° 0 mm 3 mps 648 mmHg 42%
    20:00 +20°C° 0 mm 3 mps 648 mmHg 47%
    21:00 +19°C° 0 mm 3 mps 648 mmHg 51%
    22:00 +19°C° 0 mm 3 mps 649 mmHg 55%
    23:00 +18°C° 0 mm 3 mps 649 mmHg 59%

    3 Marzo, Martes

    Tiempo Temperatura Precipitaciones Viento Presión Humedad
    00:00 +17°C° 0 mm 2 mps 649 mmHg 62%
    01:00 +16°C° 0 mm 2 mps 648 mmHg 66%
    02:00 +16°C° 0 mm 2 mps 648 mmHg 69%
    03:00 +16°C° 0 mm 1 mps 648 mmHg 70%
    04:00 +15°C° 0 mm 1 mps 648 mmHg 71%
    05:00 +15°C° 0 mm 1 mps 648 mmHg 72%
    06:00 +17°C° 0 mm 2 mps 649 mmHg 67%
    07:00 +18°C° 0 mm 2 mps 650 mmHg 62%
    08:00 +20°C° 0 mm 2 mps 651 mmHg 57%
    09:00 +23°C° 0 mm 2 mps 651 mmHg 51%
    10:00 +25°C° 0 mm 2 mps 652 mmHg 45%
    11:00 +27°C° 0 mm 2 mps 652 mmHg 39%
    12:00 +28°C° 0 mm 2 mps 652 mmHg 38%
    13:00 +28°C° 0 mm 2 mps 651 mmHg 37%
    14:00 +29°C° 0 mm 2 mps 651 mmHg 36%
    15:00 +27°C° 0 mm 3 mps 650 mmHg 41%
    16:00 +26°C° 0 mm 4 mps 650 mmHg 46%
    17:00 +23°C° 0 mm 4 mps 649 mmHg 51%
    18:00 +22°C° 0.1 mm 4 mps 649 mmHg 58%
    19:00 +21°C° 0.1 mm 4 mps 650 mmHg 65%
    20:00 +19°C° 0.1 mm 4 mps 650 mmHg 71%
    21:00 +19°C° 0 mm 4 mps 650 mmHg 74%
    22:00 +18°C° 0 mm 4 mps 651 mmHg 76%
    23:00 +18°C° 0 mm 4 mps 651 mmHg 79%

    4 Marzo, Miércoles

    Tiempo Temperatura Precipitaciones Viento Presión Humedad
    00:00 +17°C° 0 mm 4 mps 651 mmHg 82%
    01:00 +17°C° 0 mm 4 mps 650 mmHg 85%
    02:00 +15°C° 0 mm 4 mps 650 mmHg 88%
    03:00 +15°C° 0 mm 4 mps 650 mmHg 88%
    04:00 +15°C° 0 mm 4 mps 650 mmHg 88%
    05:00 +14°C° 0 mm 4 mps 651 mmHg 88%
    06:00 +15°C° 0 mm 5 mps 651 mmHg 85%
    07:00 +15°C° 0 mm 5 mps 652 mmHg 82%
    08:00 +16°C° 0 mm 5 mps 652 mmHg 79%
    09:00 +19°C° 0 mm 5 mps 653 mmHg 70%
    10:00 +22°C° 0 mm 5 mps 653 mmHg 61%
    11:00 +24°C° 0 mm 6 mps 653 mmHg 51%
    12:00 +25°C° 0 mm 5 mps 653 mmHg 49%
    13:00 +26°C° 0 mm 5 mps 652 mmHg 46%
    14:00 +27°C° 0 mm 5 mps 652 mmHg 44%
    15:00 +26°C° 0 mm 5 mps 651 mmHg 46%
    16:00 +25°C° 0 mm 5 mps 651 mmHg 48%
    17:00 +23°C° 0 mm 5 mps 650 mmHg 51%
    18:00 +22°C° 0 mm 5 mps 650 mmHg 55%
    19:00 +20°C° 0 mm 4 mps 650 mmHg 58%
    20:00 +19°C° 0 mm 4 mps 651 mmHg 62%
    21:00 +18°C° 0 mm 4 mps 651 mmHg 63%
    22:00 +17°C° 0 mm 3 mps 651 mmHg 63%
    23:00 +17°C° 0 mm 3 mps 651 mmHg 63%

    5 Marzo, Jueves

    Tiempo Temperatura Precipitaciones Viento Presión Humedad
    00:00 +16°C° 0 mm 3 mps 651 mmHg 67%
    01:00 +14°C° 0 mm 3 mps 650 mmHg 71%
    02:00 +14°C° 0 mm 3 mps 650 mmHg 75%
    03:00 +14°C° 0 mm 3 mps 650 mmHg 79%
    04:00 +13°C° 0 mm 3 mps 650 mmHg 84%
    05:00 +13°C° 0 mm 3 mps 650 mmHg 88%
    06:00 +14°C° 0 mm 4 mps 651 mmHg 85%
    07:00 +17°C° 0 mm 4 mps 651 mmHg 81%
    08:00 +17°C° 0 mm 5 mps 652 mmHg 77%
    09:00 +20°C° 0 mm 5 mps 652 mmHg 66%
    10:00 +23°C° 0 mm 4 mps 652 mmHg 54%
    11:00 +26°C° 0 mm 4 mps 653 mmHg 42%
    12:00 +27°C° 0 mm 4 mps 652 mmHg 37%
    13:00 +28°C° 0 mm 4 mps 652 mmHg 32%
    14:00 +29°C° 0 mm 4 mps 651 mmHg 27%
    15:00 +29°C° 0 mm 4 mps 651 mmHg 28%
    16:00 +28°C° 0 mm 4 mps 650 mmHg 29%
    17:00 +28°C° 0 mm 4 mps 650 mmHg 30%
    18:00 +25°C° 0 mm 4 mps 649 mmHg 37%
    19:00 +22°C° 0 mm 4 mps 649 mmHg 43%
    20:00 +20°C° 0 mm 4 mps 649 mmHg 50%
    21:00 +19°C° 0 mm 4 mps 650 mmHg 52%
    22:00 +19°C° 0 mm 4 mps 650 mmHg 55%
    23:00 +18°C° 0 mm 4 mps 650 mmHg 58%
    Mostrar más